[[{"header":{"parameterUnit":"m.s-1","parameterCategory":1,"la1":30.2991,"la2":30.254,"lo1":-89.0895,"lo2":-89.0444,"dy":0.0017,"dx":0.0017,"nx":28,"ny":28,"refTime":"2024-03-26T03:00:00:Z","depth":0,"parameterNumber":2,"parameterNumberName":"U-component_of_WINDS"},"data":[0,0,0,0,0,0,0,0,0,0,0,0,0,0,0,0,0,0,0,0,0,0,0,0,0,0,0,0,0,0,0,0,0,0,0,0,0,0,0,0,0,0,0,0,0,0,0,0,0,0,0,0,0,0,0,0,0,0,-3.783,-3.7829,0,-3.7735,-3.7734,-3.7733,-3.7615,-3.7613,-3.7611,-3.761,-3.7507,-3.7506,-3.7505,0,0,0,0,0,0,0,0,0,0,0,0,0,-3.7899,-3.7899,-3.783,-3.7829,-3.7828,-3.7735,-3.7734,-3.7732,-3.7615,-3.7613,-3.7611,-3.7609,-3.7507,-3.7506,-3.7505,0,0,0,0,0,0,0,0,0,0,0,0,0,-3.7843,-3.7899,-3.783,-3.7758,-3.7751,-3.7735,-3.7734,-3.7732,-3.7616,-3.7613,-3.761,-3.7608,-3.7507,-3.7506,-3.7505,-3.755,0,0,-3.75,-3.7499,0,0,0,0,0,0,0,0,-3.7847,-3.7841,-3.777,-3.7763,-3.7755,-3.7684,-3.772,-3.7671,-3.7616,-3.7667,-3.7609,-3.7606,-3.7568,-3.7561,-3.7549,-3.7546,-3.7541,-3.75,-3.7499,-3.7498,-3.7498,0,0,0,0,0,0,0,-3.7851,-3.7844,-3.7792,-3.7769,-3.776,-3.7727,-3.7716,-3.771,-3.7634,-3.7662,-3.7654,-3.7644,-3.7563,-3.7551,-3.7546,-3.754,-3.75,-3.7498,-3.7497,-3.7497,-3.7559,-3.7561,0,0,0,0,0,0,-3.7867,-3.7848,-3.7795,-3.7789,-3.7795,-3.7728,-3.7716,-3.7709,-3.7634,-3.7619,-3.7647,-3.7639,-3.7555,-3.7548,-3.7542,-3.7585,-3.7498,-3.7497,-3.7496,-3.7557,-3.756,-3.7562,0,0,0,0,0,0,-3.7869,-3.7863,-3.7799,-3.7816,-3.7806,-3.773,-3.7724,-3.7709,-3.7697,-3.7622,-3.7607,-3.7649,-3.7552,-3.7544,-3.7547,-3.758,-3.7496,-3.7495,-3.7553,-3.7557,-3.7561,-3.7676,0,0,0,0,0,0,-3.7871,-3.7864,-3.7884,-3.7818,-3.7805,-3.781,-3.7726,-3.7709,-3.7695,-3.7684,-3.762,-3.7607,-3.7549,-3.755,-3.7546,-3.7576,-3.7493,-3.755,-3.7555,-3.756,-3.7669,-3.7683,-3.7696,0,0,0,0,0,-3.7874,-3.7921,-3.7886,-3.788,-3.7829,-3.7813,-3.7805,-3.774,-3.7699,-3.7715,-3.7665,-3.7609,-3.7577,-3.7552,-3.7546,-3.7576,-3.7548,-3.7554,-3.7559,-3.7663,-3.768,-3.7695,0,0,0,0,0,0,-3.7994,-3.7911,-3.7872,-3.7899,-3.7864,-3.7793,-3.7813,-3.7762,-3.7736,-3.7727,-3.7645,-3.7631,-3.7643,-3.761,-3.7583,-3.7612,-3.7553,-3.7558,-3.7634,-3.765,-3.7663,-3.7671,-3.7492,0,0,0,0,0,-3.8023,-3.802,-3.7947,-3.7978,-3.7962,-3.7891,-3.7881,-3.7833,-3.7793,-3.7777,-3.7728,-3.7688,-3.7668,-3.7657,-3.7635,-3.7662,-3.7643,-3.7679,-3.7693,-3.7704,-3.7709,-3.7713,-3.7727,-3.7581,-3.7581,-3.7581,0,0,-3.8085,-3.8039,-3.8042,-3.8,-3.7968,-3.7961,-3.7879,-3.7878,-3.7871,-3.7776,-3.7776,-3.7738,-3.7687,-3.7701,-3.7705,-3.7673,-3.7744,-3.7712,-3.7721,-3.772,-3.7721,-3.7734,-3.7747,-3.7585,-3.7585,-3.7584,0,0,-3.8193,-3.816,-3.818,-3.8147,-3.8097,-3.8048,-3.8053,-3.7988,-3.7959,-3.7958,-3.7884,-3.7872,-3.7842,-3.7807,-3.7785,-3.7871,-3.7815,-3.7866,-3.7935,-3.794,-3.7952,-3.7961,-3.7987,-3.7998,-3.7871,-3.7871,-3.7871,0,-3.8275,-3.8266,-3.8196,-3.8197,-3.8179,-3.8091,-3.8107,-3.8078,-3.8024,-3.801,-3.7976,-3.793,-3.7891,-3.7892,-3.7912,-3.7899,-3.7897,-3.7874,-3.7956,-3.7965,-3.7973,-3.7997,-3.8007,-3.7877,-3.7877,-3.7876,-3.7875,0,-3.8367,-3.8361,-3.8382,-3.8331,-3.8314,-3.8324,-3.825,-3.824,-3.8192,-3.8144,-3.8139,-3.8087,-3.805,-3.8046,-3.8,-3.8038,-3.8019,-3.7972,-3.7912,-3.7994,-3.8015,-3.8024,-3.7886,-3.7884,-3.7882,-3.7881,0,0,-3.8553,-3.8458,-3.8467,-3.8439,-3.8375,-3.8367,-3.8368,-3.8332,-3.8323,-3.8286,-3.8282,-3.8254,-3.8207,-3.8182,-3.8129,-3.8134,-3.8198,-3.8084,-3.8082,-3.8104,-3.8229,-3.8265,-3.8277,-3.816,-3.8161,-3.8163,-3.8232,0,-3.8647,-3.8648,-3.8581,-3.8598,-3.8588,-3.8501,-3.85,-3.8458,-3.8412,-3.8393,-3.834,-3.832,-3.8263,-3.8246,-3.8247,-3.8191,-3.8222,-3.8185,-3.815,-3.815,-3.8165,-3.8288,-3.8327,-3.8396,-3.824,-3.8242,-3.8243,0,-3.8759,-3.8727,-3.8744,-3.8672,-3.8665,-3.8668,-3.8625,-3.861,-3.8557,-3.8522,-3.849,-3.8429,-3.8419,-3.8361,-3.8343,-3.8319,-3.8299,-3.8268,-3.8269,-3.8263,-3.8201,-3.8282,-3.8417,-3.8426,-3.8255,-3.8254,-3.8253,0,-3.8888,-3.885,-3.8853,-3.8833,-3.875,-3.8752,-3.8717,-3.8662,-3.8642,-3.8603,-3.8587,-3.8548,-3.8526,-3.8493,-3.842,-3.8386,-3.8407,-3.8345,-3.8373,-3.8375,-3.8382,-3.8383,-3.8513,-3.8373,-3.8373,-3.8373,-3.8373,0,-3.9,-3.9013,-3.8909,-3.8912,-3.892,-3.8839,-3.8849,-3.8805,-3.8754,-3.8742,-3.8662,-3.8652,-3.8557,-3.8532,-3.8474,-3.8464,-3.8455,-3.8422,-3.8407,-3.8429,-3.8433,-3.8415,-3.8408,-3.8376,-3.8375,-3.8375,-3.8374,0,-3.9147,-3.9079,-3.9076,-3.8996,-3.8976,-3.8986,-3.8915,-3.891,-3.8857,-3.8841,-3.8832,-3.8748,-3.8714,-3.8638,-3.8585,-3.8544,-3.8547,-3.852,-3.8566,-3.8556,-3.8587,-3.8584,-3.871,-3.8719,-3.8576,-3.8578,-3.8579,0,-3.9223,-3.923,-3.9151,-3.9137,-3.9106,-3.9086,-3.9064,-3.8982,-3.8962,-3.8897,-3.8898,-3.8859,-3.8823,-3.8773,-3.8703,-3.8659,-3.8629,-3.8675,-3.8622,-3.8641,-3.8624,-3.8624,-3.8622,-3.8687,-3.8689,-3.8691,-3.8692,0,-3.9363,-3.9327,-3.9301,-3.9261,-3.9237,-3.9202,-3.9161,-3.9153,-3.9059,-3.9039,-3.9005,-3.8977,-3.892,-3.888,-3.8824,-3.8781,-3.8719,-3.8709,-3.8713,-3.8735,-3.876,-3.8743,-3.8596,-3.8707,-3.8706,-3.8705,-3.8704,-3.8703,-3.9474,-3.9474,-3.9417,-3.9388,-3.9348,-3.931,-3.93,-3.9243,-3.9214,-3.9163,-3.9115,-3.9083,-3.902,-3.8939,-3.89,-3.8869,-3.8839,-3.8845,-3.8846,-3.8849,-3.8856,-3.8766,-3.8859,-3.8859,-3.8858,-3.8858,-3.8857,0,-3.9608,-3.9565,-3.9539,-3.9484,-3.9459,-3.9403,-3.9353,-3.9334,-3.9309,-3.9257,-3.9222,-3.9178,-3.9136,-3.906,-3.901,-3.9,-3.8969,-3.8989,-3.8988,-3.8978,-3.8889,-3.8889,-3.9014,-3.9014,-3.9014,-3.9014,-3.9014,-3.9014,-3.9674,-3.9669,-3.9626,-3.9597,-3.9552,-3.9523,-3.9498,-3.9459,-3.9417,-3.9372,-3.9337,-3.9289,-3.9224,-3.9167,-3.9123,-3.9101,-3.9085,-3.9113,-3.9082,-3.9,-3.8985,-3.8971,-3.8971,-3.9111,-3.9111,-3.9173,-3.9173,-3.9174]},{"header":{"parameterUnit":"m.s-1","parameterCategory":1,"la1":30.2991,"la2":30.254,"lo1":-89.0895,"lo2":-89.0444,"dy":0.0017,"dx":0.0017,"nx":28,"ny":28,"refTime":"2024-03-26T03:00:00:Z","depth":0,"parameterNumber":3,"parameterNumberName":"V-component_of_WINDS"},"data":[0,0,0,0,0,0,0,0,0,0,0,0,0,0,0,0,0,0,0,0,0,0,0,0,0,0,0,0,0,0,0,0,0,0,0,0,0,0,0,0,0,0,0,0,0,0,0,0,0,0,0,0,0,0,0,0,0,0,-4.45,-4.4502,0,-4.467,-4.4672,-4.4674,-4.4666,-4.4663,-4.4661,-4.4659,-4.4835,-4.4842,-4.4848,0,0,0,0,0,0,0,0,0,0,0,0,0,-4.4171,-4.4177,-4.45,-4.4502,-4.4504,-4.467,-4.4672,-4.4675,-4.4666,-4.4663,-4.466,-4.4657,-4.4832,-4.4841,-4.4849,0,0,0,0,0,0,0,0,0,0,0,0,0,-4.4325,-4.4179,-4.4499,-4.452,-4.4523,-4.4669,-4.4672,-4.4675,-4.4667,-4.4663,-4.4659,-4.4656,-4.483,-4.484,-4.485,-4.4988,0,0,-4.4882,-4.4887,0,0,0,0,0,0,0,0,-4.4316,-4.4337,-4.4515,-4.4519,-4.4523,-4.4643,-4.4621,-4.478,-4.4668,-4.4612,-4.4658,-4.4654,-4.4774,-4.4789,-4.4829,-4.4996,-4.5004,-4.4883,-4.4889,-4.4894,-4.4897,0,0,0,0,0,0,0,-4.4306,-4.433,-4.4567,-4.4517,-4.4522,-4.4522,-4.454,-4.4651,-4.4712,-4.4617,-4.4617,-4.4637,-4.4776,-4.4819,-4.4833,-4.5006,-4.4883,-4.4892,-4.4898,-4.4903,-4.5301,-4.5306,0,0,0,0,0,0,-4.429,-4.4321,-4.4562,-4.4572,-4.4408,-4.4531,-4.4551,-4.4608,-4.471,-4.4722,-4.464,-4.4636,-4.4803,-4.4821,-4.4839,-4.5012,-4.4894,-4.4904,-4.491,-4.5297,-4.5302,-4.5307,0,0,0,0,0,0,-4.4283,-4.4312,-4.4555,-4.4447,-4.4478,-4.454,-4.4605,-4.4613,-4.4657,-4.4728,-4.4739,-4.4673,-4.4801,-4.4824,-4.4952,-4.5018,-4.4908,-4.4918,-4.5292,-4.5299,-4.5305,-4.5356,0,0,0,0,0,0,-4.4274,-4.4309,-4.4361,-4.4448,-4.4483,-4.4664,-4.4609,-4.4619,-4.4675,-4.4671,-4.4762,-4.4773,-4.48,-4.4937,-4.4963,-4.503,-4.4926,-4.5286,-4.5295,-4.5303,-4.5349,-4.5363,-4.5376,0,0,0,0,0,-4.4262,-4.4367,-4.4364,-4.4393,-4.4549,-4.4668,-4.4688,-4.4716,-4.468,-4.4734,-4.478,-4.477,-4.5005,-4.495,-4.4979,-4.5051,-4.5283,-4.5293,-4.5302,-4.5342,-4.536,-4.5375,0,0,0,0,0,0,-4.4286,-4.4379,-4.4376,-4.4512,-4.4582,-4.4666,-4.4735,-4.4733,-4.4815,-4.4809,-4.484,-4.4861,-4.499,-4.5032,-4.4969,-4.5192,-4.514,-4.5156,-4.516,-4.5178,-4.5191,-4.518,-4.4935,0,0,0,0,0,-4.4307,-4.4395,-4.4471,-4.4585,-4.462,-4.4671,-4.4724,-4.474,-4.4814,-4.4843,-4.4899,-4.4972,-4.5063,-4.5122,-4.5209,-4.5353,-4.5376,-4.5417,-4.5431,-4.5442,-4.5457,-4.5542,-4.5563,-4.5339,-4.5339,-4.5339,0,0,-4.4352,-4.4414,-4.4467,-4.4591,-4.4647,-4.474,-4.4696,-4.4794,-4.4864,-4.4858,-4.4984,-4.5027,-4.5111,-4.5249,-4.5313,-4.5289,-4.5523,-4.5454,-4.5462,-4.5472,-4.5555,-4.5576,-4.5595,-4.5346,-4.5344,-4.5343,0,0,-4.4482,-4.4535,-4.4638,-4.4696,-4.4782,-4.4816,-4.484,-4.4925,-4.4955,-4.5081,-4.508,-4.5164,-4.5318,-4.538,-4.5431,-4.5588,-4.5585,-4.5615,-4.5688,-4.5771,-4.5789,-4.5805,-4.5866,-4.5888,-4.5629,-4.5629,-4.5629,0,-4.4527,-4.4665,-4.4691,-4.4792,-4.4849,-4.4848,-4.4954,-4.5009,-4.5119,-4.5159,-4.513,-4.5328,-4.5383,-4.5539,-4.5578,-4.5617,-4.565,-4.5607,-4.5784,-4.58,-4.5815,-4.5875,-4.5897,-4.5633,-4.5632,-4.5632,-4.5632,0,-4.4719,-4.4815,-4.4888,-4.4996,-4.5061,-4.5163,-4.5207,-4.527,-4.528,-4.5318,-4.545,-4.5517,-4.562,-4.5657,-4.5668,-4.5817,-4.58,-4.5776,-4.5725,-4.584,-4.5897,-4.5919,-4.5638,-4.5637,-4.5636,-4.5635,0,0,-4.4869,-4.4992,-4.5019,-4.5071,-4.5167,-4.5243,-4.5347,-4.5448,-4.5504,-4.558,-4.5671,-4.5804,-4.5785,-4.5843,-4.5861,-4.5933,-4.6061,-4.5902,-4.5905,-4.5934,-4.6235,-4.6256,-4.6282,-4.6057,-4.6061,-4.6065,-4.623,0,-4.5013,-4.5198,-4.5226,-4.539,-4.5483,-4.5484,-4.5576,-4.5646,-4.5685,-4.577,-4.5812,-4.5909,-4.5873,-4.5909,-4.598,-4.603,-4.6122,-4.6017,-4.6147,-4.6151,-4.6131,-4.631,-4.6331,-4.6484,-4.6252,-4.6256,-4.6258,0,-4.5205,-4.5289,-4.5463,-4.5551,-4.5591,-4.5673,-4.5771,-4.5851,-4.5932,-4.5955,-4.6023,-4.6033,-4.6144,-4.6085,-4.6242,-4.6171,-4.6225,-4.6257,-4.6264,-4.6281,-4.6215,-4.6337,-4.6533,-4.6558,-4.6292,-4.629,-4.6287,0,-4.5305,-4.546,-4.5586,-4.5629,-4.5733,-4.5792,-4.5839,-4.5916,-4.5977,-4.6063,-4.6104,-4.62,-4.6255,-4.6331,-4.6369,-4.6321,-4.6525,-4.6468,-4.6552,-4.6552,-4.6598,-4.6596,-4.6811,-4.6624,-4.6624,-4.6624,-4.6623,0,-4.5465,-4.5573,-4.5633,-4.571,-4.5833,-4.5864,-4.5985,-4.603,-4.6099,-4.6188,-4.6194,-4.6277,-4.6319,-4.641,-4.6439,-4.6569,-4.6591,-4.6616,-4.6624,-4.6619,-4.6617,-4.6659,-4.6651,-4.663,-4.6628,-4.6627,-4.6626,0,-4.5598,-4.5641,-4.578,-4.5868,-4.5893,-4.598,-4.6057,-4.6135,-4.6173,-4.6286,-4.6314,-4.6375,-4.6483,-4.6526,-4.6657,-4.6677,-4.6828,-4.6824,-4.6801,-4.6805,-4.6889,-4.6883,-4.7143,-4.7182,-4.6964,-4.6966,-4.6967,0,-4.57,-4.5783,-4.5882,-4.5942,-4.5991,-4.6087,-4.615,-4.6185,-4.6251,-4.6352,-4.6419,-4.6526,-4.6614,-4.6786,-4.6844,-4.6946,-4.6948,-4.7032,-4.6964,-4.6958,-4.6957,-4.6954,-4.6965,-4.7047,-4.7049,-4.7051,-4.7052,0,-4.5878,-4.5897,-4.5987,-4.6087,-4.6163,-4.6242,-4.632,-4.637,-4.6417,-4.6491,-4.6602,-4.6671,-4.6806,-4.6915,-4.702,-4.707,-4.7072,-4.7073,-4.7099,-4.7097,-4.7083,-4.7099,-4.6842,-4.7068,-4.7066,-4.7065,-4.7064,-4.7063,-4.6003,-4.6079,-4.6162,-4.6264,-4.6327,-4.6401,-4.648,-4.6529,-4.6622,-4.6736,-4.675,-4.687,-4.6954,-4.7096,-4.7151,-4.7247,-4.7226,-4.7262,-4.7272,-4.7282,-4.7291,-4.7063,-4.7265,-4.7265,-4.7265,-4.7264,-4.7264,0,-4.6187,-4.6241,-4.6334,-4.6445,-4.6526,-4.6518,-4.6605,-4.6675,-4.6781,-4.6858,-4.6945,-4.7075,-4.7182,-4.7248,-4.7356,-4.7421,-4.7425,-4.7449,-4.7447,-4.746,-4.73,-4.727,-4.7444,-4.7444,-4.7444,-4.7444,-4.7444,-4.7444,-4.6292,-4.6424,-4.6453,-4.6616,-4.667,-4.6788,-4.6839,-4.6909,-4.6972,-4.7117,-4.7205,-4.7248,-4.7323,-4.7437,-4.7536,-4.7553,-4.7595,-4.7622,-4.7638,-4.7489,-4.747,-4.7453,-4.7425,-4.7629,-4.7629,-4.7791,-4.7793,-4.7794]}]]